Regional Weather Roundup
Issued by NWS

Home | Current Version | Previous Version | Graphics & Text | Print | Product List | Glossary On
Versions: 1 2 3 4 5 6 7 8 9 10 11 12 13 14 15 16 17 18 19 20 21 22 23 24 25 26 27
000
ASUS45 KBOU 200707
RWRCO

WEATHER ROUNDUP FOR COLORADO
NATIONAL WEATHER SERVICE DENVER/BOULDER CO
1200 AM MST FRI JAN 20 2017

NOTE: "FAIR" INDICATES FEW OR NO CLOUDS BELOW 12000 FEET WITH NO
SIGNIFICANT WEATHER AND/OR OBSTRUCTIONS TO VISIBILITY.

COZ001>005-013-030-031-200800-
...NORTHWEST COLORADO...

CITY           SKY/WX    TMP DP  RH WIND       PRES   REMARKS
CRAIG          LGT SNOW  28  26  92 CALM      29.62F FOG
HAYDEN         CLOUDY    27  21  80 E6        29.62F WCI  20
MEEKER         LGT SNOW  29  28  96 CALM      29.62F VSB 1
MOUNT WERNER   NOT AVBL
STEAMBOAT SPGS CLOUDY    22  20  94 CALM      29.62F
WALDEN           N/A     23  19  86 S7        29.60F WCI  15
$$

COZ006>008-011-200800-
...WEST CENTRAL VALLEYS...

CITY           SKY/WX    TMP DP  RH WIND       PRES   REMARKS
GRAND JUNCTION CLOUDY    31  31 100 CALM      29.64F FOG
MONTROSE       CLOUDY    31  31 100 S5        29.67F WCI  26
EAGLE          LGT SNOW  26  25  96 CALM      29.66F FOG
RIFLE          LGT SNOW  31  30  96 CALM      29.65F FOG
DELTA          CLOUDY    34  33  96 SE3       29.66F FOG
NUCLA          CLOUDY    32  32 100 CALM      29.68F
$$

COZ017>023-064>068-200800-
...SOUTHWEST COLORADO...

CITY           SKY/WX    TMP DP  RH WIND       PRES   REMARKS
DURANGO        LGT SNOW  30  27  88 E5        29.69F FOG     WCI  25
CORTEZ         NOT AVBL
PAGOSA SPRINGS LGT SNOW  29  29 100 CALM      29.70F
TELLURIDE      LGT SNOW  27  22  82 CALM      29.65F
WOLF CREEK PAS CLOUDY    14  14 100 S16G26    29.67F WCI  -2
$$

COZ009-010-012-014-032>034-037-058>063-200800-
...CENTRAL COLORADO...

CITY           SKY/WX    TMP DP  RH WIND       PRES   REMARKS
ASPEN          LGT SNOW  25  24  96 CALM      29.61F FOG
BUENA VISTA    CLOUDY    25  23  91 CALM      29.61F FOG
COPPER MTN     LGT SNOW  19  14  79 MISG      29.60F
BERTHOUD PASS  NOT AVBL
COTTONWOOD PAS LGT SNOW  27  25  93 CALM      29.60F
GUNNISON       FLURRIES  13  10  88 W5        29.68F WCI   5
KREMMLING      LGT SNOW  19  14  79 CALM      29.66F
LEADVILLE      LGT SNOW  20  17  88 N5        29.58F VSB 3/4 WCI  13
MONARCH PASS   HVY SNOW  16  12  86 SW12G28   29.70F VSB 1/4 WCI   3
SALIDA         CLOUDY    32  22  64 SW12      29.67F WCI  23
SUNLIGHT       LGT SNOW  18  16  93 SW8       29.65F WCI   7
WILKERSON PASS LGT SNOW  21  19  93 W12G21    29.59F VSB 1   WCI   9
$$

COZ069>075-200800-
...SAN LUIS VALLEY/SANGRE DE CRISTO MOUNTAINS...

CITY           SKY/WX    TMP DP  RH WIND       PRES   REMARKS
ALAMOSA        CLOUDY    20  18  92 E6        29.67F WCI  12
LA VETA PASS   LGT SNOW  21  18  86 NE30G41   29.58F VSB 3/4 WCI   3
SAGUACHE       LGT SNOW  23  21  93 SE6       29.67F WCI  16
$$

COZ035-036-038>040-200800-
...NORTHERN COLORADO FRONT RANGE...

CITY           SKY/WX    TMP DP  RH WIND       PRES   REMARKS
DENVER INTL AP MOCLDY    30  21  69 W5        29.49F WCI  25
DMNS CITY PARK   N/A     34  22  62 NE2G10    29.49F
AURORA         PTCLDY    29  19  66 S7        29.49F WCI  22
FRONT RANGE AP FAIR      32  25  74 SW8       29.49F WCI  25
ERIE MUNI ARPT FAIR      27  24  89 CALM      29.50F
BOULDER MUN AP FAIR      34  23  64 CALM      29.49F
CENTENNIAL     FAIR      31  20  63 CALM      29.48F
BROOMFIELD     FAIR      36  21  55 NW5       29.49F
FORT COLLINS   FAIR      30  21  69 CALM      29.50F
LONGMONT       FAIR      30  24  78 CALM      29.52F
$$

COZ041-046-047-076>085-087-088-200800-
...PIKES PEAK/PALMER DIVIDE AND SOUTHERN FOOTHILLS...

CITY           SKY/WX    TMP DP  RH WIND       PRES   REMARKS
COLO. SPRINGS  CLOUDY    37  19  48 NE8       29.49F
A. F. ACADEMY  FAIR      41  22  46 VRB5      29.48F
SCHRIEVER AFB  NOT AVBL
ELLICOTT       FAIR     N/A N/A N/A S6        29.47F
FALCON         FAIR      36  21  54 SW5       29.50S
FORT CARSON    CLOUDY    36  21  55 W3        29.49F
LIMON          FAIR      24  21  88 W3        29.48F
MONUMENT HILL  FAIR      32  21  64 W5        29.51F WCI  27
TRINIDAD       CLOUDY    37  26  64 W9        29.50F
$$

COZ042>045-048>051-090-091-200800-
...NORTHEAST COLORADO...

CITY           SKY/WX    TMP DP  RH WIND       PRES   REMARKS
GREELEY ARPT   FAIR      25  23  92 CALM      29.51F
AKRON          FAIR      32  22  66 NE9       29.48F WCI  24
BURLINGTON     FOG       27  25  92 SW7       29.50F VSB 1/2 WCI  19
WRAY           FOG       23  23 100 SW5       29.51F VSB 3/4 WCI  17
STERLING       FAIR      23  21  93 SW3       29.49F
HOLYOKE        FAIR      21  19  93 S6        29.49F WCI  14
FORT MORGAN    FAIR      30  24  78 N5        29.49F WCI  25
$$

COZ086-089-092>099-200800-
...SOUTHEAST COLORADO...

CITY           SKY/WX    TMP DP  RH WIND       PRES   REMARKS
PUEBLO         FAIR      46  28  49 W26G33    29.47F
LA JUNTA       FAIR      28  25  88 N7        29.49R WCI  21
LAMAR          FOG       30  29  96 SE5       29.48F VSB 1/4 WCI  25
SPRINGFIELD      N/A     32  31  96 SW7       29.47F WCI  26
$$




USA.gov is the U.S. government's official web portal to all federal, state and local government web resources and services.